| time (UTC) | temp F | wind direction | speed MPH | gust MPH | rain 1hr in | rain 24hr in | rain mn in | humidity % | barometer mb |
| 20260510234243 | 99 | 78 | 2.0 | 8.0 | 0.00 | 0.00 | 0.00 | 7 | 1010.5 |
| 20260510233925 | 99 | 95 | 2.0 | 8.0 | 0.00 | 0.00 | 0.00 | 6 | 1010.6 |
| 20260510233601 | 99 | 161 | 3.0 | 10.0 | 0.00 | 0.00 | 0.00 | 6 | 1010.6 |
| 20260510233236 | 99 | 101 | 3.0 | 10.0 | 0.00 | 0.00 | 0.00 | 7 | 1010.5 |
| 20260510232919 | 99 | 103 | 4.0 | 10.0 | 0.00 | 0.00 | 0.00 | 7 | 1010.5 |
| 20260510232553 | 99 | 57 | 4.0 | 13.0 | 0.00 | 0.00 | 0.00 | 8 | 1010.5 |
| 20260510232234 | 100 | 105 | 5.0 | 13.0 | 0.00 | 0.00 | 0.00 | 7 | 1010.5 |
| 20260510231917 | 99 | 85 | 5.0 | 13.0 | 0.00 | 0.00 | 0.00 | 8 | 1010.5 |
| 20260510231553 | 99 | 96 | 4.0 | 13.0 | 0.00 | 0.00 | 0.00 | 7 | 1010.5 |
| 20260510231229 | 98 | 124 | 4.0 | 13.0 | 0.00 | 0.00 | 0.00 | 8 | 1010.5 |
| 20260510230903 | 98 | 157 | 4.0 | 11.0 | 0.00 | 0.00 | 0.00 | 7 | 1010.7 |
| 20260510230244 | 99 | 110 | 3.0 | 9.0 | 0.00 | 0.00 | 0.00 | 7 | 1010.7 |
| 20260510225920 | 98 | 173 | 2.0 | 9.0 | 0.00 | 0.00 | 0.00 | 6 | 1010.8 |
| 20260510225600 | 99 | 240 | 1.0 | 9.0 | 0.00 | 0.00 | 0.00 | 7 | 1010.8 |
| 20260510225244 | 99 | 19 | 1.0 | 9.0 | 0.00 | 0.00 | 0.00 | 6 | 1010.9 |
| 20260510224928 | 99 | 338 | 2.0 | 9.0 | 0.00 | 0.00 | 0.00 | 8 | 1011.0 |
| 20260510224602 | 99 | 17 | 2.0 | 9.0 | 0.00 | 0.00 | 0.00 | 6 | 1011.2 |
| 20260510224241 | 99 | 97 | 3.0 | 9.0 | 0.00 | 0.00 | 0.00 | 7 | 1011.2 |
| 20260510223925 | 98 | 111 | 2.0 | 8.0 | 0.00 | 0.00 | 0.00 | 6 | 1011.2 |
| 20260510223600 | 99 | 149 | 4.0 | 8.0 | 0.00 | 0.00 | 0.00 | 7 | 1011.3 |
| 20260510223238 | 99 | 157 | 4.0 | 9.0 | 0.00 | 0.00 | 0.00 | 7 | 1011.4 |
| 20260510222916 | 100 | 88 | 3.0 | 9.0 | 0.00 | 0.00 | 0.00 | 9 | 1011.4 |
| 20260510222554 | 99 | 132 | 2.0 | 10.0 | 0.00 | 0.00 | 0.00 | 7 | 1011.5 |
| 20260510222233 | 98 | 159 | 3.0 | 10.0 | 0.00 | 0.00 | 0.00 | 6 | 1011.5 |
| 20260510221617 | 99 | 209 | 4.0 | 10.0 | 0.00 | 0.00 | 0.00 | 6 | 1011.6 |
| 20260510221300 | 99 | 183 | 4.0 | 11.0 | 0.00 | 0.00 | 0.00 | 6 | 1011.7 |
| 20260510220942 | 99 | 178 | 5.0 | 11.0 | 0.00 | 0.00 | 0.00 | 6 | 1011.7 |
| 20260510220619 | 100 | 146 | 5.0 | 11.0 | 0.00 | 0.00 | 0.00 | 6 | 1011.8 |
| 20260510220302 | 100 | 146 | 4.0 | 11.0 | 0.00 | 0.00 | 0.00 | 6 | 1011.9 |
| 20260510215944 | 101 | 149 | 3.0 | 11.0 | 0.00 | 0.00 | 0.00 | 9 | 1011.9 |
| 20260510215625 | 100 | 142 | 3.0 | 11.0 | 0.00 | 0.00 | 0.00 | 6 | 1012.0 |
| 20260510215007 | 101 | 314 | 4.0 | 9.0 | 0.00 | 0.00 | 0.00 | 8 | 1012.0 |
| 20260510214649 | 100 | 26 | 3.0 | 10.0 | 0.00 | 0.00 | 0.00 | 6 | 1012.0 |
| 20260510214331 | 100 | 26 | 3.0 | 10.0 | 0.00 | 0.00 | 0.00 | 7 | 1012.1 |
| 20260510214016 | 99 | 136 | 3.0 | 10.0 | 0.00 | 0.00 | 0.00 | 6 | 1012.1 |
| 20260510213652 | 99 | 124 | 4.0 | 12.0 | 0.00 | 0.00 | 0.00 | 6 | 1012.2 |
| 20260510213037 | 100 | 153 | 6.0 | 12.0 | 0.00 | 0.00 | 0.00 | 6 | 1012.2 |
| 20260510212413 | 100 | 137 | 6.0 | 12.0 | 0.00 | 0.00 | 0.00 | 8 | 1012.3 |
| 20260510212053 | 99 | 98 | 6.0 | 12.0 | 0.00 | 0.00 | 0.00 | 7 | 1012.3 |
| 20260510211735 | 99 | 111 | 5.0 | 12.0 | 0.00 | 0.00 | 0.00 | 8 | 1012.5 |
| 20260510211418 | 99 | 147 | 4.0 | 11.0 | 0.00 | 0.00 | 0.00 | 9 | 1012.5 |
| 20260510211104 | 99 | 133 | 2.0 | 11.0 | 0.00 | 0.00 | 0.00 | 6 | 1012.5 |
| 20260510210738 | 99 | 79 | 2.0 | 9.0 | 0.00 | 0.00 | 0.00 | 8 | 1012.5 |
| 20260510205815 | 99 | 163 | 5.0 | 13.0 | 0.00 | 0.00 | 0.00 | 6 | 1012.7 |
| 20260510205454 | 99 | 98 | 4.0 | 13.0 | 0.00 | 0.00 | 0.00 | 9 | 1012.8 |
| 20260510205135 | 100 | 80 | 4.0 | 13.0 | 0.00 | 0.00 | 0.00 | 7 | 1012.9 |
| 20260510204821 | 100 | 21 | 4.0 | 13.0 | 0.00 | 0.00 | 0.00 | 6 | 1012.9 |
| 20260510204455 | 100 | 32 | 4.0 | 11.0 | 0.00 | 0.00 | 0.00 | 7 | 1013.0 |
| 20260510204130 | 99 | 85 | 4.0 | 10.0 | 0.00 | 0.00 | 0.00 | 8 | 1013.0 |
| 20260510203212 | 99 | 355 | 1.0 | 8.0 | 0.00 | 0.00 | 0.00 | 7 | 1013.1 |
| 20260510202855 | 98 | 9 | 1.0 | 8.0 | 0.00 | 0.00 | 0.00 | 8 | 1013.2 |
| 20260510202540 | 98 | 63 | 1.0 | 8.0 | 0.00 | 0.00 | 0.00 | 9 | 1013.2 |
| 20260510201915 | 98 | 93 | 2.0 | 8.0 | 0.00 | 0.00 | 0.00 | 7 | 1013.3 |
| 20260510201248 | 98 | 140 | 3.0 | 8.0 | 0.00 | 0.00 | 0.00 | 9 | 1013.4 |
| 20260510200925 | 98 | 162 | 3.0 | 11.0 | 0.00 | 0.00 | 0.00 | 8 | 1013.4 |
| 20260510200607 | 98 | 70 | 3.0 | 11.0 | 0.00 | 0.00 | 0.00 | 9 | 1013.4 |
| 20260510200248 | 98 | 18 | 4.0 | 11.0 | 0.00 | 0.00 | 0.00 | 6 | 1013.4 |
| 20260510195928 | 99 | 5 | 5.0 | 11.0 | 0.00 | 0.00 | 0.00 | 6 | 1013.5 |
| 20260510195603 | 98 | 100 | 5.0 | 11.0 | 0.00 | 0.00 | 0.00 | 8 | 1013.6 |
| 20260510195239 | 99 | 75 | 4.0 | 11.0 | 0.00 | 0.00 | 0.00 | 7 | 1013.5 |
| 20260510194920 | 99 | 63 | 4.0 | 10.0 | 0.00 | 0.00 | 0.00 | 8 | 1013.5 |
| 20260510194603 | 97 | 31 | 4.0 | 10.0 | 0.00 | 0.00 | 0.00 | 9 | 1013.6 |
| 20260510193636 | 97 | 67 | 5.0 | 12.0 | 0.00 | 0.00 | 0.00 | 9 | 1013.7 |
| 20260510192721 | 98 | 153 | 5.0 | 12.0 | 0.00 | 0.00 | 0.00 | 8 | 1013.7 |
| 20260510191806 | 97 | 34 | 4.0 | 16.0 | 0.00 | 0.00 | 0.00 | 7 | 1013.8 |
| 20260510191441 | 95 | 0 | 4.0 | 16.0 | 0.00 | 0.00 | 0.00 | 10 | 1013.8 |
| 20260510190823 | 97 | 95 | 6.0 | 16.0 | 0.00 | 0.00 | 0.00 | 9 | 1014.0 |
| 20260510190506 | 97 | 96 | 5.0 | 16.0 | 0.00 | 0.00 | 0.00 | 8 | 1014.1 |
| 20260510190152 | 97 | 107 | 4.0 | 12.0 | 0.00 | 0.00 | 0.00 | 9 | 1014.2 |
| 20260510185529 | 97 | 70 | 3.0 | 15.0 | 0.00 | 0.00 | 0.00 | 8 | 1014.1 |
| 20260510185205 | 97 | 123 | 3.0 | 15.0 | 0.00 | 0.00 | 0.00 | 7 | 1014.1 |
| 20260510184845 | 96 | 28 | 3.0 | 15.0 | 0.00 | 0.00 | 0.00 | 9 | 1014.1 |
| 20260510184524 | 96 | 107 | 4.0 | 15.0 | 0.00 | 0.00 | 0.00 | 7 | 1014.2 |
| 20260510183558 | 96 | 117 | 4.0 | 10.0 | 0.00 | 0.00 | 0.00 | 10 | 1014.5 |
| 20260510183242 | 96 | 101 | 4.0 | 10.0 | 0.00 | 0.00 | 0.00 | 8 | 1014.6 |
| 20260510182920 | 95 | 63 | 3.0 | 10.0 | 0.00 | 0.00 | 0.00 | 8 | 1014.5 |
| 20260510182605 | 95 | 85 | 4.0 | 10.0 | 0.00 | 0.00 | 0.00 | 7 | 1014.5 |
| 20260510181947 | 95 | 52 | 5.0 | 12.0 | 0.00 | 0.00 | 0.00 | 7 | 1014.5 |
| 20260510181622 | 95 | 91 | 6.0 | 12.0 | 0.00 | 0.00 | 0.00 | 7 | 1014.6 |
| 20260510181256 | 95 | 44 | 5.0 | 12.0 | 0.00 | 0.00 | 0.00 | 9 | 1014.5 |
| 20260510180932 | 95 | 103 | 4.0 | 12.0 | 0.00 | 0.00 | 0.00 | 11 | 1014.6 |
| 20260510180016 | 94 | 85 | 6.0 | 12.0 | 0.00 | 0.00 | 0.00 | 9 | 1014.6 |
| 20260510175650 | 94 | 107 | 5.0 | 12.0 | 0.00 | 0.00 | 0.00 | 7 | 1014.7 |
| 20260510175327 | 95 | 93 | 5.0 | 12.0 | 0.00 | 0.00 | 0.00 | 7 | 1014.7 |
| 20260510175001 | 94 | 70 | 4.0 | 10.0 | 0.00 | 0.00 | 0.00 | 10 | 1014.6 |
| 20260510174637 | 94 | 10 | 4.0 | 10.0 | 0.00 | 0.00 | 0.00 | 8 | 1014.7 |
| 20260510174317 | 94 | 31 | 6.0 | 13.0 | 0.00 | 0.00 | 0.00 | 8 | 1014.7 |
| 20260510173955 | 94 | 44 | 6.0 | 13.0 | 0.00 | 0.00 | 0.00 | 7 | 1014.7 |
| 20260510173638 | 94 | 46 | 5.0 | 13.0 | 0.00 | 0.00 | 0.00 | 7 | 1014.7 |
| 20260510173316 | 94 | 117 | 5.0 | 14.0 | 0.00 | 0.00 | 0.00 | 10 | 1014.7 |
| 20260510172954 | 93 | 59 | 7.0 | 14.0 | 0.00 | 0.00 | 0.00 | 7 | 1014.7 |
| 20260510172636 | 93 | 76 | 7.0 | 14.0 | 0.00 | 0.00 | 0.00 | 10 | 1014.7 |
| 20260510172018 | 93 | 103 | 4.0 | 14.0 | 0.00 | 0.00 | 0.00 | 9 | 1014.6 |
| 20260510171655 | 92 | 69 | 4.0 | 14.0 | 0.00 | 0.00 | 0.00 | 8 | 1014.6 |
| 20260510171336 | 92 | 115 | 3.0 | 10.0 | 0.00 | 0.00 | 0.00 | 8 | 1014.6 |
| 20260510171012 | 92 | 35 | 3.0 | 10.0 | 0.00 | 0.00 | 0.00 | 9 | 1014.6 |
| 20260510170647 | 92 | 24 | 2.0 | 10.0 | 0.00 | 0.00 | 0.00 | 9 | 1014.6 |
| 20260510170028 | 92 | 11 | 3.0 | 9.0 | 0.00 | 0.00 | 0.00 | 9 | 1014.6 |
| 20260510165711 | 91 | 43 | 3.0 | 9.0 | 0.00 | 0.00 | 0.00 | 9 | 1014.6 |
| 20260510165355 | 92 | 55 | 3.0 | 9.0 | 0.00 | 0.00 | 0.00 | 9 | 1014.6 |
| 20260510165038 | 91 | 23 | 3.0 | 9.0 | 0.00 | 0.00 | 0.00 | 9 | 1014.6 |
| 20260510164714 | 91 | 59 | 2.0 | 9.0 | 0.00 | 0.00 | 0.00 | 9 | 1014.6 |
| 20260510164353 | 91 | 46 | 2.0 | 8.0 | 0.00 | 0.00 | 0.00 | 10 | 1014.6 |
| 20260510164031 | 90 | 47 | 3.0 | 8.0 | 0.00 | 0.00 | 0.00 | 10 | 1014.5 |
| 20260510163710 | 90 | 47 | 3.0 | 8.0 | 0.00 | 0.00 | 0.00 | 10 | 1014.5 |
| 20260510163346 | 89 | 50 | 3.0 | 8.0 | 0.00 | 0.00 | 0.00 | 11 | 1014.5 |
| 20260510163026 | 90 | 10 | 3.0 | 8.0 | 0.00 | 0.00 | 0.00 | 10 | 1014.5 |
| 20260510162709 | 89 | 5 | 2.0 | 8.0 | 0.00 | 0.00 | 0.00 | 13 | 1014.5 |
| 20260510162354 | 89 | 72 | 1.0 | 8.0 | 0.00 | 0.00 | 0.00 | 11 | 1014.5 |
| 20260510162032 | 89 | 82 | 1.0 | 8.0 | 0.00 | 0.00 | 0.00 | 10 | 1014.5 |
| 20260510161709 | 88 | 17 | 0.0 | 3.0 | 0.00 | 0.00 | 0.00 | 10 | 1014.4 |
| 20260510161351 | 88 | 0 | 1.0 | 5.0 | 0.00 | 0.00 | 0.00 | 11 | 1014.4 |
| 20260510160726 | 87 | 23 | 0.0 | 3.0 | 0.00 | 0.00 | 0.00 | 11 | 1014.3 |
| 20260510160401 | 86 | 17 | 0.0 | 2.0 | 0.00 | 0.00 | 0.00 | 11 | 1014.3 |
| 20260510160037 | 87 | 81 | 0.0 | 2.0 | 0.00 | 0.00 | 0.00 | 11 | 1014.4 |
| 20260510155714 | 87 | 329 | 0.0 | 2.0 | 0.00 | 0.00 | 0.00 | 11 | 1014.4 |
| 20260510155358 | 86 | 5 | 0.0 | 2.0 | 0.00 | 0.00 | 0.00 | 14 | 1014.4 |
| 20260510155036 | 86 | 74 | 1.0 | 4.0 | 0.00 | 0.00 | 0.00 | 16 | 1014.3 |
| 20260510154415 | 85 | 183 | 1.0 | 4.0 | 0.00 | 0.00 | 0.00 | 13 | 1014.3 |
| 20260510153757 | 85 | 59 | 1.0 | 6.0 | 0.00 | 0.00 | 0.00 | 16 | 1014.3 |
| 20260510153441 | 84 | 99 | 1.0 | 6.0 | 0.00 | 0.00 | 0.00 | 15 | 1014.2 |
| 20260510153118 | 84 | 59 | 1.0 | 6.0 | 0.00 | 0.00 | 0.00 | 17 | 1014.3 |
| 20260510152155 | 83 | 151 | 1.0 | 6.0 | 0.00 | 0.00 | 0.00 | 17 | 1014.3 |
| 20260510151832 | 83 | 128 | 1.0 | 6.0 | 0.00 | 0.00 | 0.00 | 17 | 1014.2 |
| 20260510151516 | 82 | 107 | 0.0 | 2.0 | 0.00 | 0.00 | 0.00 | 18 | 1014.2 |
| 20260510151202 | 82 | 101 | 0.0 | 2.0 | 0.00 | 0.00 | 0.00 | 18 | 1014.2 |
| 20260510150841 | 81 | 116 | 0.0 | 2.0 | 0.00 | 0.00 | 0.00 | 18 | 1014.2 |
| 20260510150524 | 79 | 116 | 0.0 | 2.0 | 0.00 | 0.00 | 0.00 | 18 | 1014.1 |
| 20260510150200 | 78 | 149 | 0.0 | 2.0 | 0.00 | 0.00 | 0.00 | 20 | 1014.1 |
| 20260510145834 | 77 | 101 | 0.0 | 0.0 | 0.00 | 0.00 | 0.00 | 23 | 1014.1 |
| 20260510145518 | 76 | 98 | 0.0 | 0.0 | 0.00 | 0.00 | 0.00 | 23 | 1014.1 |
| 20260510145158 | 75 | 98 | 0.0 | 1.0 | 0.00 | 0.00 | 0.00 | 26 | 1014.1 |
| 20260510144841 | 74 | 144 | 0.0 | 1.0 | 0.00 | 0.00 | 0.00 | 25 | 1014.1 |
| 20260510144526 | 73 | 144 | 0.0 | 1.0 | 0.00 | 0.00 | 0.00 | 27 | 1014.0 |
| 20260510143601 | 72 | 144 | 0.0 | 0.0 | 0.00 | 0.00 | 0.00 | 28 | 1013.9 |
| 20260510143236 | 71 | 144 | 0.0 | 1.0 | 0.00 | 0.00 | 0.00 | 31 | 1014.0 |
| 20260510142910 | 70 | 144 | 0.0 | 0.0 | 0.00 | 0.00 | 0.00 | 31 | 1013.8 |
| 20260510141948 | 69 | 144 | 0.0 | 0.0 | 0.00 | 0.00 | 0.00 | 31 | 1013.9 |
| 20260510141626 | 69 | 144 | 0.0 | 0.0 | 0.00 | 0.00 | 0.00 | 31 | 1013.8 |
| 20260510141259 | 69 | 144 | 0.0 | 0.0 | 0.00 | 0.00 | 0.00 | 31 | 1013.7 |
| 20260510140634 | 68 | 144 | 0.0 | 2.0 | 0.00 | 0.00 | 0.00 | 33 | 1013.7 |
| 20260510140304 | 68 | 251 | 1.0 | 2.0 | 0.00 | 0.00 | 0.00 | 30 | 1013.5 |
| 20260510135637 | 67 | 293 | 0.0 | 2.0 | 0.00 | 0.00 | 0.00 | 29 | 1013.4 |
| 20260510134717 | 67 | 279 | 0.0 | 2.0 | 0.00 | 0.00 | 0.00 | 29 | 1013.3 |
| 20260510134056 | 67 | 291 | 1.0 | 2.0 | 0.00 | 0.00 | 0.00 | 29 | 1013.1 |
| 20260510133740 | 66 | 0 | 1.0 | 3.0 | 0.00 | 0.00 | 0.00 | 27 | 1013.0 |
| 20260510133418 | 66 | 0 | 1.0 | 3.0 | 0.00 | 0.00 | 0.00 | 27 | 1013.1 |
| 20260510133102 | 66 | 0 | 1.0 | 3.0 | 0.00 | 0.00 | 0.00 | 27 | 1013.0 |
| 20260510132745 | 66 | 0 | 1.0 | 4.0 | 0.00 | 0.00 | 0.00 | 27 | 1012.9 |
| 20260510132423 | 66 | 0 | 2.0 | 4.0 | 0.00 | 0.00 | 0.00 | 27 | 1012.8 |
| 20260510132057 | 66 | 0 | 2.0 | 4.0 | 0.00 | 0.00 | 0.00 | 26 | 1012.7 |
| 20260510131735 | 66 | 0 | 3.0 | 4.0 | 0.00 | 0.00 | 0.00 | 26 | 1012.7 |
| 20260510131409 | 66 | 0 | 2.0 | 4.0 | 0.00 | 0.00 | 0.00 | 25 | 1012.6 |
| 20260510131049 | 66 | 0 | 2.0 | 4.0 | 0.00 | 0.00 | 0.00 | 25 | 1012.5 |
| 20260510130728 | 67 | 0 | 2.0 | 4.0 | 0.00 | 0.00 | 0.00 | 25 | 1012.5 |
| 20260510125803 | 67 | 0 | 2.0 | 4.0 | 0.00 | 0.00 | 0.00 | 24 | 1012.3 |
| 20260510125440 | 67 | 0 | 2.0 | 4.0 | 0.00 | 0.00 | 0.00 | 24 | 1012.3 |
| 20260510125123 | 67 | 0 | 1.0 | 3.0 | 0.00 | 0.00 | 0.00 | 24 | 1012.3 |
| 20260510124757 | 67 | 0 | 0.0 | 3.0 | 0.00 | 0.00 | 0.00 | 24 | 1012.2 |
| 20260510124434 | 67 | 0 | 1.0 | 3.0 | 0.00 | 0.00 | 0.00 | 24 | 1012.1 |
| 20260510124110 | 67 | 0 | 2.0 | 3.0 | 0.00 | 0.00 | 0.00 | 24 | 1012.1 |
| 20260510123748 | 67 | 0 | 2.0 | 3.0 | 0.00 | 0.00 | 0.00 | 24 | 1012.1 |
| 20260510123430 | 68 | 0 | 2.0 | 3.0 | 0.00 | 0.00 | 0.00 | 24 | 1012.1 |
| 20260510122806 | 68 | 0 | 2.0 | 3.0 | 0.00 | 0.00 | 0.00 | 24 | 1012.1 |
| 20260510122141 | 68 | 0 | 2.0 | 3.0 | 0.00 | 0.00 | 0.00 | 24 | 1012.0 |
| 20260510121815 | 68 | 0 | 2.0 | 3.0 | 0.00 | 0.00 | 0.00 | 24 | 1012.0 |
| 20260510121457 | 68 | 0 | 2.0 | 4.0 | 0.00 | 0.00 | 0.00 | 25 | 1012.0 |
| 20260510121140 | 68 | 0 | 2.0 | 4.0 | 0.00 | 0.00 | 0.00 | 25 | 1012.0 |
| 20260510120817 | 68 | 0 | 2.0 | 4.0 | 0.00 | 0.00 | 0.00 | 24 | 1011.9 |
| 20260510120501 | 68 | 0 | 2.0 | 4.0 | 0.00 | 0.00 | 0.00 | 24 | 1011.9 |
| 20260510115843 | 68 | 0 | 2.0 | 4.0 | 0.00 | 0.00 | 0.00 | 24 | 1011.9 |
| 20260510115522 | 69 | 0 | 1.0 | 3.0 | 0.00 | 0.00 | 0.00 | 24 | 1011.8 |
| 20260510114858 | 69 | 0 | 2.0 | 3.0 | 0.00 | 0.00 | 0.00 | 24 | 1011.8 |
| 20260510114233 | 69 | 0 | 2.0 | 3.0 | 0.00 | 0.00 | 0.00 | 24 | 1011.7 |
| 20260510113917 | 69 | 0 | 2.0 | 3.0 | 0.00 | 0.00 | 0.00 | 24 | 1011.6 |
| 20260510113555 | 69 | 0 | 1.0 | 3.0 | 0.00 | 0.00 | 0.00 | 24 | 1011.6 |
| 20260510113240 | 69 | 0 | 1.0 | 2.0 | 0.00 | 0.00 | 0.00 | 24 | 1011.6 |
| 20260510112616 | 70 | 0 | 1.0 | 4.0 | 0.00 | 0.00 | 0.00 | 25 | 1011.6 |
| 20260510112301 | 70 | 0 | 2.0 | 4.0 | 0.00 | 0.00 | 0.00 | 24 | 1011.4 |
| 20260510111633 | 70 | 0 | 2.0 | 4.0 | 0.00 | 0.00 | 0.00 | 24 | 1011.3 |
| 20260510111010 | 70 | 0 | 1.0 | 2.0 | 0.00 | 0.00 | 0.00 | 23 | 1011.3 |
| 20260510110648 | 70 | 0 | 1.0 | 2.0 | 0.00 | 0.00 | 0.00 | 23 | 1011.2 |
| 20260510110330 | 71 | 0 | 1.0 | 3.0 | 0.00 | 0.00 | 0.00 | 22 | 1011.1 |
| 20260510110015 | 71 | 0 | 1.0 | 3.0 | 0.00 | 0.00 | 0.00 | 23 | 1011.1 |
| 20260510105651 | 71 | 0 | 1.0 | 3.0 | 0.00 | 0.00 | 0.00 | 22 | 1011.1 |
| 20260510105326 | 71 | 0 | 1.0 | 3.0 | 0.00 | 0.00 | 0.00 | 22 | 1011.1 |
| 20260510104107 | 72 | 0 | 0.0 | 0.0 | 0.00 | 0.00 | 0.00 | 22 | 1011.1 |
| 20260510103147 | 72 | 0 | 0.0 | 1.0 | 0.00 | 0.00 | 0.00 | 22 | 1010.8 |
| 20260510102824 | 72 | 0 | 1.0 | 1.0 | 0.00 | 0.00 | 0.00 | 21 | 1010.8 |
| 20260510102458 | 72 | 0 | 2.0 | 3.0 | 0.00 | 0.00 | 0.00 | 22 | 1010.8 |
| 20260510102135 | 72 | 0 | 2.0 | 3.0 | 0.00 | 0.00 | 0.00 | 21 | 1010.8 |
| 20260510101817 | 72 | 0 | 1.0 | 3.0 | 0.00 | 0.00 | 0.00 | 21 | 1010.7 |
| 20260510101457 | 73 | 0 | 1.0 | 3.0 | 0.00 | 0.00 | 0.00 | 21 | 1010.7 |
| 20260510101140 | 73 | 0 | 1.0 | 3.0 | 0.00 | 0.00 | 0.00 | 21 | 1010.6 |
| 20260510100818 | 73 | 0 | 1.0 | 3.0 | 0.00 | 0.00 | 0.00 | 20 | 1010.7 |
| 20260510100453 | 73 | 0 | 1.0 | 3.0 | 0.00 | 0.00 | 0.00 | 21 | 1010.6 |
| 20260510100131 | 74 | 0 | 1.0 | 3.0 | 0.00 | 0.00 | 0.00 | 20 | 1010.6 |
| 20260510095813 | 74 | 0 | 1.0 | 2.0 | 0.00 | 0.00 | 0.00 | 19 | 1010.6 |
| 20260510095453 | 74 | 0 | 1.0 | 0.0 | 0.00 | 0.00 | 0.00 | 20 | 1010.6 |
| 20260510094833 | 75 | 0 | 1.0 | 3.0 | 0.00 | 0.00 | 0.00 | 20 | 1010.5 |
| 20260510094512 | 75 | 0 | 0.0 | 2.0 | 0.00 | 0.00 | 0.00 | 20 | 1010.5 |
| 20260510094158 | 75 | 0 | 0.0 | 2.0 | 0.00 | 0.00 | 0.00 | 19 | 1010.5 |
| 20260510093837 | 75 | 0 | 0.0 | 3.0 | 0.00 | 0.00 | 0.00 | 20 | 1010.4 |
| 20260510093512 | 76 | 0 | 1.0 | 3.0 | 0.00 | 0.00 | 0.00 | 18 | 1010.4 |
| 20260510093153 | 76 | 0 | 2.0 | 3.0 | 0.00 | 0.00 | 0.00 | 18 | 1010.4 |
| 20260510092830 | 76 | 0 | 2.0 | 3.0 | 0.00 | 0.00 | 0.00 | 18 | 1010.4 |
| 20260510092515 | 76 | 0 | 2.0 | 3.0 | 0.00 | 0.00 | 0.00 | 18 | 1010.3 |
| 20260510092200 | 76 | 0 | 1.0 | 3.0 | 0.00 | 0.00 | 0.00 | 17 | 1010.2 |
| 20260510091540 | 77 | 0 | 1.0 | 3.0 | 0.00 | 0.00 | 0.00 | 17 | 1010.3 |
| 20260510091219 | 77 | 0 | 1.0 | 3.0 | 0.00 | 0.00 | 0.00 | 17 | 1010.3 |
| 20260510090603 | 77 | 0 | 1.0 | 3.0 | 0.00 | 0.00 | 0.00 | 17 | 1010.2 |
| 20260510090242 | 77 | 0 | 1.0 | 3.0 | 0.00 | 0.00 | 0.00 | 17 | 1010.1 |
| 20260510085917 | 78 | 0 | 1.0 | 3.0 | 0.00 | 0.00 | 0.00 | 17 | 1010.0 |
| 20260510085253 | 78 | 0 | 1.0 | 3.0 | 0.00 | 0.00 | 0.00 | 16 | 1010.0 |
| 20260510084931 | 79 | 0 | 1.0 | 3.0 | 0.00 | 0.00 | 0.00 | 16 | 1009.9 |
| 20260510084612 | 79 | 0 | 1.0 | 3.0 | 0.00 | 0.00 | 0.00 | 15 | 1010.0 |
| 20260510084254 | 79 | 0 | 0.0 | 3.0 | 0.00 | 0.00 | 0.00 | 16 | 1009.9 |
| 20260510083939 | 79 | 0 | 0.0 | 2.0 | 0.00 | 0.00 | 0.00 | 16 | 1009.8 |
| 20260510083615 | 80 | 0 | 0.0 | 0.0 | 0.00 | 0.00 | 0.00 | 16 | 1009.8 |
| 20260510083254 | 80 | 0 | 0.0 | 2.0 | 0.00 | 0.00 | 0.00 | 15 | 1009.8 |
| 20260510082932 | 81 | 0 | 0.0 | 2.0 | 0.00 | 0.00 | 0.00 | 14 | 1009.7 |
| 20260510082607 | 81 | 0 | 0.0 | 1.0 | 0.00 | 0.00 | 0.00 | 14 | 1009.8 |
| 20260510082247 | 81 | 0 | 0.0 | 3.0 | 0.00 | 0.00 | 0.00 | 14 | 1009.7 |
| 20260510081924 | 82 | 0 | 1.0 | 3.0 | 0.00 | 0.00 | 0.00 | 14 | 1009.7 |
| 20260510081610 | 82 | 0 | 1.0 | 7.0 | 0.00 | 0.00 | 0.00 | 13 | 1009.6 |
| 20260510080949 | 82 | 0 | 2.0 | 7.0 | 0.00 | 0.00 | 0.00 | 13 | 1009.6 |
| 20260510080634 | 82 | 0 | 2.0 | 7.0 | 0.00 | 0.00 | 0.00 | 13 | 1009.6 |
| 20260510080312 | 82 | 0 | 3.0 | 8.0 | 0.00 | 0.00 | 0.00 | 13 | 1009.6 |
| 20260510075953 | 82 | 0 | 3.0 | 8.0 | 0.00 | 0.00 | 0.00 | 13 | 1009.6 |
| 20260510075637 | 82 | 0 | 3.0 | 8.0 | 0.00 | 0.00 | 0.00 | 13 | 1009.6 |
| 20260510075321 | 82 | 0 | 3.0 | 8.0 | 0.00 | 0.00 | 0.00 | 13 | 1009.6 |
| 20260510074957 | 82 | 0 | 3.0 | 8.0 | 0.00 | 0.00 | 0.00 | 13 | 1009.6 |
| 20260510074336 | 82 | 0 | 2.0 | 5.0 | 0.00 | 0.00 | 0.00 | 13 | 1009.5 |
| 20260510074021 | 82 | 0 | 2.0 | 5.0 | 0.00 | 0.00 | 0.00 | 13 | 1009.5 |
| 20260510073705 | 82 | 0 | 2.0 | 5.0 | 0.00 | 0.00 | 0.00 | 13 | 1009.5 |
| 20260510073350 | 82 | 0 | 2.0 | 9.0 | 0.00 | 0.00 | 0.00 | 13 | 1009.5 |
| 20260510072733 | 82 | 0 | 2.0 | 9.0 | 0.00 | 0.00 | 0.00 | 13 | 1009.5 |
| 20260510072412 | 82 | 0 | 3.0 | 9.0 | 0.00 | 0.00 | 0.00 | 13 | 1009.4 |
| 20260510072052 | 82 | 0 | 3.0 | 9.0 | 0.00 | 0.00 | 0.00 | 13 | 1009.4 |
| 20260510071726 | 82 | 0 | 3.0 | 9.0 | 0.00 | 0.00 | 0.00 | 13 | 1009.4 |
| 20260510071403 | 82 | 0 | 3.0 | 7.0 | 0.00 | 0.00 | 0.00 | 14 | 1009.5 |
| 20260510071047 | 82 | 0 | 2.0 | 8.0 | 0.00 | 0.00 | 0.00 | 14 | 1009.4 |
| 20260510070721 | 82 | 0 | 2.0 | 8.0 | 0.00 | 0.00 | 0.00 | 14 | 1009.4 |
| 20260510070403 | 82 | 0 | 3.0 | 8.0 | 0.00 | 0.00 | 0.00 | 14 | 1009.4 |
| 20260510070043 | 81 | 0 | 3.0 | 8.0 | 0.00 | 0.00 | 0.00 | 14 | 1009.3 |
| 20260510065725 | 81 | 0 | 4.0 | 8.0 | 0.00 | 0.00 | 0.00 | 14 | 1009.4 |
| 20260510065411 | 81 | 0 | 3.0 | 8.0 | 0.00 | 0.00 | 0.00 | 14 | 1009.3 |
| 20260510064454 | 80 | 0 | 3.0 | 8.0 | 0.00 | 0.00 | 0.00 | 14 | 1009.1 |
| 20260510064136 | 80 | 0 | 2.0 | 8.0 | 0.00 | 0.00 | 0.00 | 15 | 1009.0 |
| 20260510063514 | 80 | 0 | 2.0 | 8.0 | 0.00 | 0.00 | 0.00 | 16 | 1009.1 |
| 20260510062552 | 80 | 0 | 3.0 | 7.0 | 0.00 | 0.00 | 0.00 | 15 | 1008.9 |
| 20260510062229 | 80 | 0 | 3.0 | 7.0 | 0.00 | 0.00 | 0.00 | 16 | 1008.8 |
| 20260510061906 | 80 | 0 | 2.0 | 5.0 | 0.00 | 0.00 | 0.00 | 16 | 1008.9 |
| 20260510061543 | 81 | 0 | 1.0 | 4.0 | 0.00 | 0.00 | 0.00 | 16 | 1008.8 |
| 20260510061215 | 81 | 0 | 1.0 | 3.0 | 0.00 | 0.00 | 0.00 | 16 | 1008.7 |
| 20260510060854 | 81 | 0 | 0.0 | 2.0 | 0.00 | 0.00 | 0.00 | 15 | 1008.6 |
| 20260510060537 | 82 | 0 | 0.0 | 2.0 | 0.00 | 0.00 | 0.00 | 15 | 1008.6 |
| 20260510060214 | 82 | 0 | 0.0 | 1.0 | 0.00 | 0.00 | 0.00 | 15 | 1008.6 |
| 20260510055850 | 82 | 0 | 0.0 | 1.0 | 0.00 | 0.00 | 0.00 | 16 | 1008.5 |
| 20260510055531 | 83 | 0 | 0.0 | 1.0 | 0.00 | 0.00 | 0.00 | 15 | 1008.5 |
| 20260510055208 | 83 | 0 | 0.0 | 1.0 | 0.00 | 0.00 | 0.00 | 15 | 1008.4 |
| 20260510054847 | 83 | 0 | 0.0 | 1.0 | 0.00 | 0.00 | 0.00 | 15 | 1008.4 |
| 20260510054227 | 84 | 0 | 0.0 | 0.0 | 0.00 | 0.00 | 0.00 | 14 | 1008.3 |
| 20260510053908 | 85 | 0 | 0.0 | 0.0 | 0.00 | 0.00 | 0.00 | 14 | 1008.3 |
| 20260510053242 | 85 | 0 | 1.0 | 5.0 | 0.00 | 0.00 | 0.00 | 13 | 1008.3 |
| 20260510052921 | 85 | 0 | 2.0 | 5.0 | 0.00 | 0.00 | 0.00 | 13 | 1008.3 |
| 20260510052559 | 85 | 0 | 2.0 | 10.0 | 0.00 | 0.00 | 0.00 | 13 | 1008.3 |
| 20260510052238 | 86 | 294 | 2.0 | 10.0 | 0.00 | 0.00 | 0.00 | 13 | 1008.2 |
| 20260510051912 | 86 | 307 | 3.0 | 10.0 | 0.00 | 0.00 | 0.00 | 13 | 1008.2 |
| 20260510051557 | 86 | 273 | 3.0 | 10.0 | 0.00 | 0.00 | 0.00 | 12 | 1008.2 |
| 20260510051235 | 86 | 306 | 4.0 | 10.0 | 0.00 | 0.00 | 0.00 | 12 | 1008.3 |
| 20260510050917 | 86 | 304 | 4.0 | 10.0 | 0.00 | 0.00 | 0.00 | 12 | 1008.2 |
| 20260510050554 | 86 | 294 | 4.0 | 9.0 | 0.00 | 0.00 | 0.00 | 12 | 1008.2 |
| 20260510050230 | 86 | 309 | 4.0 | 9.0 | 0.00 | 0.00 | 0.00 | 12 | 1008.1 |
| 20260510045915 | 86 | 277 | 4.0 | 9.0 | 0.00 | 0.00 | 0.00 | 12 | 1008.0 |
| 20260510045600 | 86 | 296 | 4.0 | 8.0 | 0.00 | 0.00 | 0.00 | 12 | 1008.1 |
| 20260510045243 | 86 | 304 | 4.0 | 11.0 | 0.00 | 0.00 | 0.00 | 12 | 1008.1 |
| 20260510044922 | 86 | 304 | 4.0 | 11.0 | 0.00 | 0.00 | 0.00 | 12 | 1008.0 |
| 20260510044601 | 86 | 300 | 4.0 | 11.0 | 0.00 | 0.00 | 0.00 | 12 | 1007.9 |
| 20260510044235 | 86 | 305 | 5.0 | 11.0 | 0.00 | 0.00 | 0.00 | 12 | 1007.9 |
| 20260510043919 | 86 | 293 | 5.0 | 11.0 | 0.00 | 0.00 | 0.00 | 13 | 1007.8 |
| 20260510043555 | 86 | 284 | 5.0 | 11.0 | 0.00 | 0.00 | 0.00 | 12 | 1007.9 |
| 20260510043239 | 86 | 281 | 5.0 | 9.0 | 0.00 | 0.00 | 0.00 | 13 | 1007.9 |
| 20260510042914 | 86 | 295 | 4.0 | 9.0 | 0.00 | 0.00 | 0.00 | 12 | 1007.8 |
| 20260510042549 | 86 | 277 | 4.0 | 9.0 | 0.00 | 0.00 | 0.00 | 12 | 1007.7 |
| 20260510041633 | 87 | 302 | 4.0 | 9.0 | 0.00 | 0.00 | 0.00 | 12 | 1007.6 |
| 20260510041318 | 87 | 263 | 4.0 | 9.0 | 0.00 | 0.00 | 0.00 | 12 | 1007.6 |
| 20260510040953 | 87 | 272 | 4.0 | 9.0 | 0.00 | 0.00 | 0.00 | 12 | 1007.6 |
| 20260510040631 | 87 | 302 | 4.0 | 8.0 | 0.00 | 0.00 | 0.00 | 12 | 1007.5 |
| 20260510040314 | 88 | 279 | 3.0 | 8.0 | 0.00 | 0.00 | 0.00 | 12 | 1007.5 |
| 20260510035954 | 88 | 253 | 3.0 | 9.0 | 0.00 | 0.00 | 0.00 | 12 | 1007.4 |
| 20260510035633 | 88 | 279 | 3.0 | 9.0 | 0.00 | 0.00 | 0.00 | 12 | 1007.5 |
| 20260510035017 | 89 | 255 | 4.0 | 9.0 | 0.00 | 0.00 | 0.00 | 12 | 1007.3 |
| 20260510034353 | 89 | 263 | 3.0 | 9.0 | 0.00 | 0.00 | 0.00 | 12 | 1007.3 |
| 20260510034036 | 90 | 314 | 3.0 | 7.0 | 0.00 | 0.00 | 0.00 | 12 | 1007.2 |
| 20260510033720 | 90 | 275 | 3.0 | 7.0 | 0.00 | 0.00 | 0.00 | 11 | 1007.2 |
| 20260510033355 | 90 | 303 | 3.0 | 9.0 | 0.00 | 0.00 | 0.00 | 11 | 1007.2 |
| 20260510033031 | 90 | 265 | 3.0 | 9.0 | 0.00 | 0.00 | 0.00 | 11 | 1007.1 |
| 20260510032710 | 90 | 292 | 2.0 | 9.0 | 0.00 | 0.00 | 0.00 | 11 | 1007.1 |
| 20260510032345 | 91 | 259 | 3.0 | 9.0 | 0.00 | 0.00 | 0.00 | 11 | 1007.0 |
| 20260510032028 | 91 | 263 | 4.0 | 9.0 | 0.00 | 0.00 | 0.00 | 11 | 1007.0 |
| 20260510031713 | 91 | 249 | 5.0 | 9.0 | 0.00 | 0.00 | 0.00 | 11 | 1006.8 |
| 20260510031352 | 91 | 270 | 4.0 | 9.0 | 0.00 | 0.00 | 0.00 | 10 | 1006.8 |
| 20260510031027 | 91 | 248 | 4.0 | 10.0 | 0.00 | 0.00 | 0.00 | 10 | 1006.8 |
| 20260510030707 | 91 | 242 | 5.0 | 10.0 | 0.00 | 0.00 | 0.00 | 11 | 1006.8 |
| 20260510030347 | 91 | 275 | 5.0 | 10.0 | 0.00 | 0.00 | 0.00 | 10 | 1006.8 |
| 20260510030026 | 92 | 266 | 5.0 | 10.0 | 0.00 | 0.00 | 0.00 | 11 | 1006.7 |
| 20260510025707 | 92 | 281 | 4.0 | 10.0 | 0.00 | 0.00 | 0.00 | 10 | 1006.6 |
| 20260510025349 | 92 | 260 | 4.0 | 10.0 | 0.00 | 0.00 | 0.00 | 10 | 1006.6 |
| 20260510025033 | 92 | 261 | 5.0 | 13.0 | 0.00 | 0.00 | 0.00 | 10 | 1006.5 |
| 20260510024709 | 92 | 275 | 6.0 | 13.0 | 0.00 | 0.00 | 0.00 | 10 | 1006.3 |
| 20260510024047 | 92 | 267 | 6.0 | 13.0 | 0.00 | 0.00 | 0.00 | 10 | 1006.4 |
| 20260510023728 | 93 | 249 | 5.0 | 13.0 | 0.00 | 0.00 | 0.00 | 10 | 1006.4 |
| 20260510023406 | 93 | 256 | 4.0 | 13.0 | 0.00 | 0.00 | 0.00 | 10 | 1006.3 |
| 20260510023046 | 93 | 221 | 3.0 | 12.0 | 0.00 | 0.00 | 0.00 | 10 | 1006.3 |
| 20260510022421 | 93 | 300 | 2.0 | 7.0 | 0.00 | 0.00 | 0.00 | 10 | 1006.2 |
| 20260510022055 | 93 | 250 | 3.0 | 7.0 | 0.00 | 0.00 | 0.00 | 11 | 1006.1 |
| 20260510021740 | 94 | 245 | 3.0 | 7.0 | 0.00 | 0.00 | 0.00 | 10 | 1006.2 |
| 20260510021419 | 94 | 246 | 3.0 | 7.0 | 0.00 | 0.00 | 0.00 | 10 | 1006.1 |
| 20260510021052 | 94 | 242 | 2.0 | 7.0 | 0.00 | 0.00 | 0.00 | 10 | 1006.1 |
| 20260510020733 | 94 | 236 | 2.0 | 7.0 | 0.00 | 0.00 | 0.00 | 10 | 1006.1 |
| 20260510020419 | 95 | 187 | 2.0 | 4.0 | 0.00 | 0.00 | 0.00 | 9 | 1006.1 |
| 20260510020058 | 95 | 186 | 2.0 | 7.0 | 0.00 | 0.00 | 0.00 | 9 | 1006.1 |
| 20260510015737 | 95 | 177 | 3.0 | 7.0 | 0.00 | 0.00 | 0.00 | 9 | 1006.1 |
| 20260510014812 | 95 | 186 | 4.0 | 8.0 | 0.00 | 0.00 | 0.00 | 9 | 1006.0 |
| 20260510014455 | 95 | 214 | 3.0 | 8.0 | 0.00 | 0.00 | 0.00 | 8 | 1006.0 |
| 20260510014137 | 95 | 233 | 3.0 | 8.0 | 0.00 | 0.00 | 0.00 | 9 | 1006.0 |
| 20260510013819 | 95 | 191 | 3.0 | 8.0 | 0.00 | 0.00 | 0.00 | 9 | 1006.0 |
| 20260510013457 | 95 | 194 | 2.0 | 8.0 | 0.00 | 0.00 | 0.00 | 9 | 1006.1 |
| 20260510013140 | 94 | 194 | 2.0 | 6.0 | 0.00 | 0.00 | 0.00 | 8 | 1006.1 |
| 20260510012522 | 94 | 271 | 1.0 | 7.0 | 0.00 | 0.00 | 0.00 | 8 | 1006.1 |
| 20260510012201 | 95 | 55 | 2.0 | 7.0 | 0.00 | 0.00 | 0.00 | 9 | 1006.2 |
| 20260510011847 | 95 | 109 | 2.0 | 7.0 | 0.00 | 0.00 | 0.00 | 8 | 1006.1 |
| 20260510011522 | 95 | 248 | 2.0 | 7.0 | 0.00 | 0.00 | 0.00 | 8 | 1006.2 |
| 20260510011156 | 95 | 246 | 1.0 | 7.0 | 0.00 | 0.00 | 0.00 | 9 | 1006.1 |
| 20260510010841 | 95 | 254 | 1.0 | 6.0 | 0.00 | 0.00 | 0.00 | 9 | 1006.2 |
| 20260510010524 | 96 | 294 | 1.0 | 6.0 | 0.00 | 0.00 | 0.00 | 9 | 1006.1 |
| 20260510005558 | 96 | 323 | 3.0 | 8.0 | 0.00 | 0.00 | 0.00 | 8 | 1006.1 |
| 20260510004938 | 96 | 305 | 3.0 | 8.0 | 0.00 | 0.00 | 0.00 | 8 | 1006.1 |
| 20260510004616 | 96 | 335 | 3.0 | 8.0 | 0.00 | 0.00 | 0.00 | 8 | 1006.2 |
| 20260510004258 | 96 | 315 | 2.0 | 8.0 | 0.00 | 0.00 | 0.00 | 9 | 1006.2 |
| 20260510003940 | 96 | 329 | 1.0 | 7.0 | 0.00 | 0.00 | 0.00 | 9 | 1006.2 |
| 20260510003616 | 96 | 233 | 3.0 | 7.0 | 0.00 | 0.00 | 0.00 | 8 | 1006.2 |
| 20260510003257 | 97 | 239 | 3.0 | 7.0 | 0.00 | 0.00 | 0.00 | 9 | 1006.3 |
| 20260510002933 | 97 | 271 | 2.0 | 7.0 | 0.00 | 0.00 | 0.00 | 9 | 1006.2 |
| 20260510002619 | 97 | 276 | 1.0 | 5.0 | 0.00 | 0.00 | 0.00 | 10 | 1006.2 |
| 20260510002258 | 97 | 322 | 1.0 | 5.0 | 0.00 | 0.00 | 0.00 | 9 | 1006.2 |
| 20260510001941 | 97 | 279 | 2.0 | 6.0 | 0.00 | 0.00 | 0.00 | 8 | 1006.3 |
| 20260510001616 | 97 | 109 | 2.0 | 6.0 | 0.00 | 0.00 | 0.00 | 8 | 1006.3 |
| 20260510001258 | 98 | 96 | 2.0 | 6.0 | 0.00 | 0.00 | 0.00 | 8 | 1006.3 |
| 20260510000941 | 98 | 126 | 3.0 | 8.0 | 0.00 | 0.00 | 0.00 | 8 | 1006.3 |
| 20260510000616 | 98 | 5 | 3.0 | 8.0 | 0.00 | 0.00 | 0.00 | 9 | 1006.3 |
| 20260510000253 | 98 | 102 | 3.0 | 8.0 | 0.00 | 0.00 | 0.00 | 9 | 1006.3 |
| 20260509235928 | 99 | 93 | 3.0 | 11.0 | 0.00 | 0.00 | 0.00 | 8 | 1006.4 |
| 20260509235608 | 99 | 53 | 4.0 | 11.0 | 0.00 | 0.00 | 0.00 | 9 | 1006.4 |
| 20260509235246 | 99 | 121 | 5.0 | 11.0 | 0.00 | 0.00 | 0.00 | 8 | 1006.5 |
| 20260509234623 | 99 | 118 | 5.0 | 11.0 | 0.00 | 0.00 | 0.00 | 8 | 1006.5 |